TimeCST,TemperatureF,Dew PointF,Humidity,Sea Level PressureIn,VisibilityMPH,Wind Direction,Wind SpeedMPH,Gust SpeedMPH,PrecipitationIn,Events,Conditions,WindDirDegrees,DateUTC
12:53 AM,30.0,26.1,85,29.86,6.0,East,6.9,-,N/A,,Overcast,80,2013-02-10 06:53:00
1:46 AM,30.2,26.6,86,29.80,6.0,East,8.1,-,N/A,,Overcast,90,2013-02-10 07:46:00
1:53 AM,30.0,27.0,88,29.83,5.0,East,8.1,-,N/A,,Overcast,80,2013-02-10 07:53:00
2:10 AM,30.2,26.6,86,29.78,2.0,ENE,10.4,-,N/A,,Overcast,70,2013-02-10 08:10:00
2:29 AM,30.2,26.6,86,29.79,1.8,East,11.5,-,0.00,Snow,Light Snow,90,2013-02-10 08:29:00
2:53 AM,30.0,27.0,88,29.83,0.5,East,11.5,-,0.04,Fog-Snow,Snow,100,2013-02-10 08:53:00
3:43 AM,30.2,26.6,86,29.76,0.8,ENE,10.4,-,0.07,Snow,Light Snow,70,2013-02-10 09:43:00
3:53 AM,30.0,27.0,88,29.79,1.0,ENE,11.5,-,0.08,Snow,Light Snow,70,2013-02-10 09:53:00
4:06 AM,30.2,26.6,86,29.74,1.0,ENE,10.4,-,0.00,Snow,Light Snow,70,2013-02-10 10:06:00
4:19 AM,30.2,26.6,86,29.74,1.2,ENE,11.5,-,0.01,Snow,Light Snow,60,2013-02-10 10:19:00
4:53 AM,30.0,27.0,88,29.77,2.0,ENE,8.1,-,0.02,Snow,Light Snow,60,2013-02-10 10:53:00
5:06 AM,30.2,26.6,86,29.74,4.0,ENE,9.2,-,0.00,Snow,Light Snow,70,2013-02-10 11:06:00
5:53 AM,30.0,26.1,85,29.75,8.0,ENE,10.4,-,0.00,,Overcast,60,2013-02-10 11:53:00
6:18 AM,30.2,26.6,86,29.72,1.8,ENE,10.4,-,0.00,Snow,Light Snow,60,2013-02-10 12:18:00
6:53 AM,30.0,26.1,85,29.75,1.8,NE,9.2,-,0.03,Snow,Light Snow,50,2013-02-10 12:53:00
6:59 AM,30.2,26.6,86,29.71,0.8,NE,10.4,-,0.00,Snow,Light Snow,50,2013-02-10 12:59:00
7:21 AM,30.2,26.6,86,29.70,0.5,NE,13.8,-,0.03,Fog-Snow,Snow,40,2013-02-10 13:21:00
7:48 AM,30.2,26.6,86,29.68,1.0,NNE,15.0,-,0.09,Snow,Light Snow,30,2013-02-10 13:48:00
7:53 AM,30.0,26.1,85,29.72,1.0,NE,15.0,-,0.09,Snow,Light Snow,40,2013-02-10 13:53:00
8:09 AM,30.2,26.6,86,29.67,2.0,NNE,17.3,-,0.00,Snow,Light Snow,30,2013-02-10 14:09:00
8:45 AM,30.2,26.6,86,29.67,3.0,NNE,15.0,-,0.00,Snow,Light Snow,30,2013-02-10 14:45:00
8:53 AM,30.0,26.1,85,29.71,3.0,NNE,15.0,-,0.00,Snow,Light Snow,30,2013-02-10 14:53:00
9:09 AM,30.2,26.6,86,29.67,1.8,NNE,16.1,-,0.00,Snow,Light Snow,30,2013-02-10 15:09:00
9:53 AM,30.0,26.1,85,29.68,1.0,NNE,18.4,-,0.00,Snow,Light Snow,30,2013-02-10 15:53:00
10:26 AM,30.2,26.6,86,29.66,1.0,NE,17.3,-,0.00,Snow,Light Snow,40,2013-02-10 16:26:00
10:53 AM,28.9,25.0,85,29.67,0.8,NNE,18.4,-,0.01,Snow,Light Snow,30,2013-02-10 16:53:00
11:10 AM,28.4,24.8,86,29.64,0.2,NNE,19.6,-,0.00,Fog-Snow,Snow,30,2013-02-10 17:10:00
11:19 AM,28.4,24.8,86,29.64,0.5,NNE,20.7,-,0.01,Fog-Snow,Snow,30,2013-02-10 17:19:00
11:27 AM,28.4,24.8,86,29.63,1.0,NNE,19.6,-,0.01,Snow,Light Snow,30,2013-02-10 17:27:00
11:30 AM,28.4,24.8,86,29.63,0.8,NNE,20.7,-,0.01,Snow,Light Snow,20,2013-02-10 17:30:00
11:43 AM,28.4,24.8,86,29.61,0.2,NNE,20.7,-,0.01,Fog-Snow,Snow,20,2013-02-10 17:43:00
11:53 AM,28.9,25.0,85,29.64,0.2,NNE,21.9,-,0.02,Fog-Snow,Snow,20,2013-02-10 17:53:00
12:15 PM,28.4,24.8,86,29.58,0.5,NNE,21.9,31.1,0.01,Fog-Snow,Snow,20,2013-02-10 18:15:00
12:53 PM,28.9,25.0,85,29.57,0.5,NNE,24.2,35.7,0.02,Fog-Snow,Snow,20,2013-02-10 18:53:00
1:34 PM,28.4,24.8,86,29.52,0.8,NNE,23.0,33.4,0.01,Snow,Light Snow,20,2013-02-10 19:34:00
1:53 PM,28.9,25.0,85,29.55,0.5,NNE,23.0,31.1,0.01,Fog-Snow,Snow,20,2013-02-10 19:53:00
2:07 PM,28.4,24.8,86,29.51,0.5,NNE,21.9,-,0.00,Snow,Snow,20,2013-02-10 20:07:00
2:16 PM,28.4,24.8,86,29.51,0.5,NNE,25.3,32.2,0.00,Fog-Snow,Snow,20,2013-02-10 20:16:00
2:18 PM,28.4,24.8,86,29.50,0.2,NNE,23.0,32.2,0.00,Fog-Snow,Heavy Snow,20,2013-02-10 20:18:00
2:36 PM,28.4,24.8,86,29.50,0.2,NNE,19.6,32.2,0.01,Fog,Light Freezing Fog,20,2013-02-10 20:36:00
2:53 PM,28.0,24.1,85,29.55,0.2,NNE,23.0,29.9,0.03,Fog,Light Freezing Fog,20,2013-02-10 20:53:00
3:28 PM,28.4,24.8,86,29.53,0.2,NNE,20.7,26.5,0.04,Fog,Light Freezing Fog,20,2013-02-10 21:28:00
3:44 PM,28.4,24.8,86,29.54,0.2,NNE,20.7,28.8,0.06,Fog,Light Freezing Fog,20,2013-02-10 21:44:00
3:53 PM,28.0,24.1,85,29.58,0.2,North,21.9,-,0.08,Fog,Light Freezing Fog,10,2013-02-10 21:53:00
4:53 PM,28.0,25.0,88,29.59,0.2,North,21.9,28.8,0.05,Fog,Light Freezing Fog,10,2013-02-10 22:53:00
5:49 PM,28.4,24.8,86,29.56,0.5,North,26.5,32.2,0.01,Fog,Light Freezing Fog,10,2013-02-10 23:49:00
5:53 PM,28.0,25.0,88,29.60,0.5,North,24.2,32.2,0.01,Fog,Light Freezing Fog,10,2013-02-10 23:53:00
6:51 PM,28.4,24.8,86,29.58,0.8,North,31.1,38.0,0.02,,Mist,360,2013-02-11 00:51:00
6:53 PM,28.0,24.1,85,29.62,0.8,North,27.6,38.0,0.02,,Mist,360,2013-02-11 00:53:00
7:05 PM,26.6,24.8,93,29.58,0.5,North,29.9,38.0,N/A,Fog,Light Freezing Fog,360,2013-02-11 01:05:00
7:22 PM,26.6,24.8,93,29.59,0.8,North,29.9,39.1,N/A,,Mist,360,2013-02-11 01:22:00
7:31 PM,28.4,24.8,86,29.59,0.8,North,27.6,38.0,0.01,,Overcast,360,2013-02-11 01:31:00
7:49 PM,26.6,24.8,93,29.60,0.5,North,29.9,35.7,0.01,Fog,Light Freezing Fog,360,2013-02-11 01:49:00
7:53 PM,28.0,24.1,85,29.64,0.5,North,33.4,39.1,0.01,Fog,Light Freezing Fog,360,2013-02-11 01:53:00
8:31 PM,26.6,24.8,93,29.61,0.8,North,27.6,36.8,0.01,,Overcast,360,2013-02-11 02:31:00
8:40 PM,26.6,24.8,93,29.61,1.0,North,29.9,36.8,0.01,,Overcast,360,2013-02-11 02:40:00
8:53 PM,27.0,24.1,89,29.65,1.0,North,26.5,38.0,0.01,,Mist,360,2013-02-11 02:53:00
9:07 PM,26.6,24.8,93,29.61,0.8,North,31.1,36.8,N/A,,Mist,360,2013-02-11 03:07:00
9:30 PM,26.6,23.0,86,29.62,0.5,North,32.2,39.1,0.01,Fog,Light Freezing Fog,360,2013-02-11 03:30:00
9:53 PM,27.0,23.0,85,29.66,0.8,North,31.1,38.0,0.01,,Mist,360,2013-02-11 03:53:00
10:01 PM,26.6,23.0,86,29.63,0.8,North,29.9,38.0,N/A,,Mist,350,2013-02-11 04:01:00
10:48 PM,26.6,23.0,86,29.64,1.0,North,28.8,-,N/A,,Overcast,350,2013-02-11 04:48:00
10:53 PM,27.0,23.0,85,29.68,0.8,North,32.2,36.8,N/A,,Overcast,350,2013-02-11 04:53:00
11:08 PM,26.6,23.0,86,29.65,0.8,North,31.1,36.8,N/A,,Overcast,350,2013-02-11 05:08:00
11:48 PM,26.6,21.2,80,29.67,1.0,North,27.6,36.8,0.01,,Overcast,350,2013-02-11 05:48:00
11:49 PM,26.1,21.9,84,29.71,1.0,North,26.5,36.8,0.01,,Overcast,350,2013-02-11 05:49:00